Location: New Canada
(47.1017°N, 68.5042°W)
Time: 22:55:16
(UTC+00:00)

RS-44 - Pass Details

Date: 03 April 2023
Orbit: 1175 x 1510 km, 82.5° (Epoch: 02 June)

Event Time Altitude Azimuth Distance (km) Brightness Sun altitude
Rises 06:24:53 0° 347° (NNW) 4,407 ? -32.5°
Reaches altitude 10° 06:27:42 10° 342° (NNW) 3,473 ? -32.3°
Enters shadow 06:35:23 51° 276° (W) 1,776 ? -31.5°
